N4XHQ-13 Weather Reports


time (UTC)temp
F
wind
direction
speed
knots
gust
knots
rain 1hr
in
rain 24hr
in
rain mn
in
humidity
%
barometer
mb
20260906101155 79 13 0.9 1.7 0.00 0.00 0.00 71 1012.9
20260906100651 79 78 0.9 0.9 0.00 0.00 0.00 71 1012.8
20260906100151 79 10 0.9 0.9 0.00 0.00 0.00 73 1012.8
20260906095646 79 5 0.0 0.0 0.00 0.00 0.00 74 1012.4
20260906095141 79 5 0.0 0.0 0.00 0.00 0.00 74 1012.2
20260906094639 79 5 0.9 0.9 0.00 0.00 0.00 74 1012.2
20260906094136 79 5 0.0 0.0 0.00 0.00 0.00 74 1012.1
20260906093632 79 5 0.9 0.9 0.00 0.00 0.00 75 1012.1
20260906093131 79 5 0.0 0.0 0.00 0.00 0.00 76 1012.2
20260906092627 79 5 1.7 1.7 0.00 0.00 0.00 78 1012.1
20260906092122 79 5 0.9 0.9 0.00 0.00 0.00 81 1011.9
20260906091618 79 1 0.9 0.9 0.00 0.00 0.00 84 1012.0
20260906091114 79 1 0.0 0.9 0.00 0.00 0.00 84 1012.1
20260906090615 79 1 0.0 0.9 0.00 0.00 0.00 85 1011.7
20260906090115 80 1 0.0 0.9 0.00 0.00 0.00 85 1012.2
20260906085614 80 1 0.0 0.9 0.00 0.00 0.00 85 1012.0
20260906085108 80 1 0.9 0.9 0.00 0.00 0.00 84 1012.1
20260906084603 80 1 0.0 0.9 0.00 0.00 0.00 84 1012.0
20260906084101 80 1 0.0 0.9 0.00 0.00 0.00 84 1012.0
20260906083557 79 1 1.7 1.7 0.00 0.00 0.00 85 1012.1
20260906083057 79 1 0.9 0.9 0.00 0.00 0.00 85 1012.3
20260906082552 79 1 0.9 0.9 0.00 0.00 0.00 86 1012.4
20260906082048 79 1 0.0 0.9 0.00 0.00 0.00 87 1012.3
20260906081544 79 1 0.0 0.0 0.00 0.00 0.00 88 1012.5
20260906081039 79 1 0.0 0.0 0.00 0.00 0.00 88 1012.5
20260906080536 78 1 0.9 0.9 0.00 0.00 0.00 89 1012.7
20260906080032 78 1 0.0 0.9 0.00 0.00 0.00 89 1012.8
20260906075531 78 1 0.0 0.0 0.00 0.00 0.00 90 1012.6
20260906075026 78 1 0.0 0.0 0.00 0.00 0.00 89 1012.3
20260906074521 78 1 0.0 0.0 0.00 0.00 0.00 89 1012.2
20260906074019 78 1 0.0 0.0 0.00 0.00 0.00 89 1012.2
20260906073514 78 1 0.0 0.0 0.00 0.00 0.00 88 1012.0
20260906073011 78 1 0.0 0.0 0.00 0.00 0.00 88 1012.1
20260906072505 78 1 0.0 0.0 0.00 0.00 0.00 88 1012.1
20260906072001 78 1 0.0 0.0 0.00 0.00 0.00 88 1012.3
20260906071457 78 1 0.0 0.0 0.00 0.00 0.00 88 1012.4
20260906070952 78 1 0.0 0.0 0.00 0.00 0.00 88 1012.2
20260906070449 78 1 0.0 0.0 0.00 0.00 0.00 87 1012.2
20260906065944 78 1 0.0 0.0 0.00 0.00 0.00 87 1012.4
20260906065443 78 1 0.0 0.0 0.00 0.00 0.00 87 1012.2
20260906064939 78 1 0.0 0.0 0.00 0.00 0.00 87 1012.2
20260906064436 78 1 0.0 0.0 0.00 0.00 0.00 87 1012.4
20260906063936 78 1 0.0 0.0 0.00 0.00 0.00 87 1012.4
20260906063431 78 1 0.0 0.0 0.00 0.00 0.00 87 1012.6
20260906062926 78 1 0.0 0.0 0.00 0.00 0.00 87 1012.6
20260906062427 78 1 0.0 0.0 0.00 0.00 0.00 86 1012.7
20260906061922 78 1 0.0 0.0 0.00 0.00 0.00 86 1012.9
20260906061418 78 1 0.0 0.0 0.00 0.00 0.00 86 1012.8
20260906060912 78 1 0.0 0.0 0.00 0.00 0.00 85 1012.9
20260906060410 78 1 0.0 0.0 0.00 0.00 0.00 85 1013.0
20260906055906 78 1 0.0 0.0 0.00 0.00 0.00 85 1013.0
20260906055401 78 1 0.0 0.0 0.00 0.00 0.00 85 1013.0
20260906054855 79 1 0.0 0.0 0.00 0.00 0.00 84 1012.9
20260906054351 79 1 0.0 0.0 0.00 0.00 0.00 84 1013.0
20260906053847 79 1 0.0 0.0 0.00 0.00 0.00 84 1013.0
20260906053343 79 1 0.0 0.0 0.00 0.00 0.00 84 1013.0
20260906052838 79 1 0.0 0.0 0.00 0.00 0.00 83 1013.1
20260906052334 79 1 0.0 0.9 0.00 0.00 0.00 83 1012.9
20260906051831 79 1 0.0 0.0 0.00 0.00 0.00 83 1013.1
20260906051330 79 1 0.0 0.9 0.00 0.00 0.00 83 1012.9
20260906050826 79 347 0.0 0.0 0.00 0.00 0.00 83 1012.9
20260906050321 79 347 0.0 0.0 0.00 0.00 0.00 83 1013.1
20260906045820 79 347 0.0 0.0 0.00 0.00 0.00 83 1013.3
20260906045314 79 347 0.0 0.0 0.00 0.00 0.00 83 1012.8
20260906044811 79 347 0.0 0.0 0.00 0.00 0.00 82 1012.8
20260906044305 79 347 0.0 0.0 0.00 0.00 0.00 82 1012.7
20260906043801 79 347 0.0 0.0 0.00 0.00 0.00 82 1012.8
20260906043257 79 347 0.0 0.0 0.00 0.00 0.00 82 1012.8
20260906042756 80 347 0.0 0.0 0.00 0.00 0.00 81 1012.8
20260906042256 80 347 0.0 0.0 0.00 0.00 0.00 81 1013.0
20260906041752 80 347 0.0 0.0 0.00 0.00 0.00 81 1013.0
20260906041247 80 347 0.0 0.0 0.00 0.00 0.00 80 1012.9
20260906040742 80 347 0.0 0.0 0.00 0.00 0.00 80 1012.9
20260906040237 80 347 0.0 0.0 0.00 0.00 0.00 79 1012.9
20260906035733 80 347 0.0 0.0 0.00 0.00 0.00 79 1012.9
20260906035229 81 347 0.0 0.0 0.00 0.00 0.00 78 1012.7
20260906034728 81 347 0.0 0.0 0.00 0.00 0.00 78 1012.9
20260906034223 81 347 0.0 0.0 0.00 0.00 0.00 77 1012.8
20260906033719 81 347 0.0 0.0 0.00 0.00 0.00 76 1013.0
20260906033218 81 346 0.0 0.9 0.00 0.00 0.00 76 1013.0
20260906032716 82 341 0.0 0.0 0.00 0.00 0.00 76 1012.9
20260906032215 82 339 0.0 0.0 0.00 0.00 0.00 76 1012.9
20260906031710 82 128 0.0 0.0 0.00 0.00 0.00 75 1013.0
20260906031205 82 130 0.0 0.9 0.00 0.00 0.00 76 1013.0
20260906030705 82 139 0.0 0.9 0.00 0.00 0.00 76 1012.8
20260906030200 82 139 0.9 0.9 0.00 0.00 0.00 76 1012.5
20260906025700 82 153 1.7 2.6 0.00 0.00 0.00 76 1012.9
20260906025200 82 155 0.0 0.9 0.00 0.00 0.00 76 1012.8
20260906024654 82 155 0.0 0.9 0.00 0.00 0.00 76 1012.8
20260906024153 82 156 0.9 1.7 0.00 0.00 0.00 76 1013.0
20260906023650 82 153 0.0 0.9 0.00 0.00 0.00 76 1013.0
20260906023149 82 156 0.0 0.9 0.00 0.00 0.00 76 1013.0
20260906022644 83 156 0.0 0.0 0.00 0.00 0.00 75 1012.7
20260906022140 83 156 0.9 0.9 0.00 0.00 0.00 75 1012.8
20260906021636 83 156 0.0 0.0 0.00 0.00 0.00 75 1012.6
20260906021134 83 156 0.9 0.9 0.00 0.00 0.00 75 1012.8
20260906020629 83 156 0.0 0.0 0.00 0.00 0.00 74 1012.8
20260906020124 83 156 0.0 0.9 0.00 0.00 0.00 74 1012.5
20260906015618 84 156 0.0 0.0 0.00 0.00 0.00 74 1012.6
20260906015117 83 156 0.9 0.9 0.00 0.00 0.00 74 1012.3
20260906014612 84 157 1.7 1.7 0.00 0.00 0.00 74 1012.3
20260906014108 84 157 0.0 0.0 0.00 0.00 0.00 73 1012.2
20260906013603 84 157 0.9 0.9 0.00 0.00 0.00 73 1012.1
20260906013058 84 159 0.0 0.0 0.00 0.00 0.00 72 1012.0
20260906012553 84 159 0.9 1.7 0.00 0.00 0.00 72 1011.9
20260906012053 84 284 0.9 1.7 0.00 0.00 0.00 72 1011.8
20260906011549 84 311 0.9 2.6 0.00 0.00 0.00 72 1011.6
20260906011048 85 321 0.9 2.6 0.00 0.00 0.00 72 1011.5
20260906010544 85 50 0.9 0.9 0.00 0.00 0.00 71 1011.7
20260906010041 85 95 0.0 0.9 0.00 0.00 0.00 71 1011.6
20260906005540 85 103 0.9 1.7 0.00 0.00 0.00 71 1011.5
20260906005039 85 344 0.0 2.6 0.00 0.00 0.00 71 1011.2
20260906004538 85 18 0.9 0.9 0.00 0.00 0.00 71 1011.5
20260906004033 85 65 0.0 0.9 0.00 0.00 0.00 71 1011.6
20260906003528 86 349 0.0 1.7 0.00 0.00 0.00 71 1011.6
20260906003024 86 345 0.0 1.7 0.00 0.00 0.00 70 1011.2
20260906002519 86 29 0.0 0.0 0.00 0.00 0.00 70 1011.5
20260906002014 86 66 0.9 1.7 0.00 0.00 0.00 69 1011.6
20260906001510 86 30 0.0 0.0 0.00 0.00 0.00 69 1011.6
20260906001004 87 32 0.9 0.9 0.00 0.00 0.00 68 1011.6
20260906000500 87 357 0.0 0.9 0.00 0.00 0.00 68 1011.6
20260906000000 87 343 0.9 1.7 0.00 0.00 0.00 67 1011.6
20260905235500 88 48 0.9 0.9 0.00 0.00 0.00 66 1011.7
20260905234955 88 350 0.0 1.7 0.00 0.00 0.00 65 1011.6
20260905234451 89 7 0.9 0.9 0.00 0.00 0.00 64 1011.7
20260905233950 89 239 0.9 2.6 0.00 0.00 0.00 64 1011.5
20260905233446 89 250 0.9 1.7 0.00 0.00 0.00 64 1011.5
20260905232944 89 321 1.7 2.6 0.00 0.00 0.00 65 1011.6
20260905232441 89 334 1.7 3.5 0.00 0.00 0.00 64 1011.4
20260905231936 89 32 0.0 1.7 0.00 0.00 0.00 65 1011.6
20260905231432 89 329 1.7 3.5 0.00 0.00 0.00 64 1011.6
20260905230928 90 48 1.7 1.7 0.00 0.00 0.00 64 1011.5
20260905230427 90 350 0.9 1.7 0.00 0.00 0.00 63 1011.4
20260905225925 89 135 3.5 3.5 0.00 0.00 0.00 64 1011.2
20260905225420 89 333 2.6 3.5 0.00 0.00 0.00 64 1011.2
20260905224915 89 318 2.6 2.6 0.00 0.00 0.00 65 1011.4
20260905224412 89 325 0.9 3.5 0.00 0.00 0.00 65 1011.5
20260905223910 89 302 3.5 5.2 0.00 0.00 0.00 64 1011.7
20260905223409 90 165 1.7 6.1 0.00 0.00 0.00 64 1011.6
20260905222909 91 328 1.7 6.1 0.00 0.00 0.00 61 1011.6
20260905222408 92 311 1.7 6.1 0.00 0.00 0.00 59 1011.2
20260905221904 93 15 1.7 1.7 0.00 0.00 0.00 57 1011.0
20260905221401 93 323 1.7 1.7 0.00 0.00 0.00 56 1011.1
20260905220856 93 22 0.0 0.9 0.00 0.00 0.00 55 1011.2
20260905220352 93 67 0.0 0.9 0.00 0.00 0.00 55 1011.0
20260905215851 93 348 0.0 2.6 0.00 0.00 0.00 55 1010.9
20260905215347 94 131 1.7 1.7 0.00 0.00 0.00 55 1010.9
20260905214843 94 333 0.9 1.7 0.00 0.00 0.00 54 1010.9
20260905214338 95 11 0.9 0.9 0.00 0.00 0.00 52 1010.7
20260905213833 96 319 2.6 3.5 0.00 0.00 0.00 50 1010.6
20260905213330 97 208 0.9 1.7 0.00 0.00 0.00 48 1010.9
20260905212830 99 326 1.7 2.6 0.00 0.00 0.00 44 1010.7
20260905212330 100 356 0.0 0.9 0.00 0.00 0.00 42 1010.6
20260905211824 100 153 0.9 0.9 0.00 0.00 0.00 41 1010.9
20260905211320 100 213 0.9 0.9 0.00 0.00 0.00 42 1010.8
20260905210817 101 342 0.9 1.7 0.00 0.00 0.00 40 1010.7
20260905210316 102 17 0.9 1.7 0.00 0.00 0.00 40 1010.9
20260905205815 102 145 1.7 2.6 0.00 0.00 0.00 42 1011.0
20260905205309 101 186 0.0 0.9 0.00 0.00 0.00 41 1011.1
20260905204809 98 172 0.9 1.7 0.00 0.00 0.00 43 1011.5
20260905204305 97 39 0.0 0.9 0.00 0.00 0.00 45 1011.6
20260905203804 97 40 0.0 1.7 0.00 0.00 0.00 44 1011.2
20260905203300 97 334 0.0 0.9 0.00 0.00 0.00 44 1011.4
20260905202755 98 357 0.0 0.9 0.00 0.00 0.00 43 1011.1
20260905202250 99 18 0.9 0.9 0.00 0.00 0.00 43 1011.6
20260905201745 101 29 1.7 3.5 0.00 0.00 0.00 41 1011.5
20260905201240 100 343 0.0 0.9 0.00 0.00 0.00 43 1011.5
20260905200736 102 5 0.9 1.7 0.00 0.00 0.00 41 1011.6
20260905200231 101 87 2.6 3.5 0.00 0.00 0.00 42 1011.5
20260905195729 102 319 0.0 1.7 0.00 0.00 0.00 42 1011.4
20260905195224 104 63 0.9 5.2 0.00 0.00 0.00 36 1011.6
20260905194720 102 352 0.9 1.7 0.00 0.00 0.00 33 1011.7
20260905194220 103 299 0.9 1.7 0.00 0.00 0.00 32 1011.8
20260905193719 102 328 0.9 0.9 0.00 0.00 0.00 33 1011.8
20260905193214 101 297 0.9 1.7 0.00 0.00 0.00 33 1011.8
20260905192710 100 348 0.9 1.7 0.00 0.00 0.00 37 1011.9
20260905192206 100 347 1.7 1.7 0.00 0.00 0.00 36 1011.9
20260905191705 99 29 1.7 1.7 0.00 0.00 0.00 39 1012.1
20260905191203 98 327 1.7 1.7 0.00 0.00 0.00 42 1012.1
20260905190702 98 316 0.9 0.9 0.00 0.00 0.00 43 1012.2
20260905190201 100 1 0.0 0.9 0.00 0.00 0.00 42 1012.3
20260905185700 101 345 1.7 2.6 0.00 0.00 0.00 36 1012.3
20260905185155 101 345 1.7 1.7 0.00 0.00 0.00 37 1012.5
20260905184654 101 304 0.9 1.7 0.00 0.00 0.00 37 1012.6
20260905184153 101 7 1.7 1.7 0.00 0.00 0.00 38 1012.5
20260905183648 101 32 1.7 2.6 0.00 0.00 0.00 38 1012.6
20260905183143 101 318 1.7 1.7 0.00 0.00 0.00 37 1012.8
20260905182642 100 359 0.0 1.7 0.00 0.00 0.00 38 1012.6
20260905182143 102 5 2.6 2.6 0.00 0.00 0.00 35 1013.0
20260905181638 102 34 0.9 1.7 0.00 0.00 0.00 35 1012.9
20260905181137 103 353 2.6 2.6 0.00 0.00 0.00 34 1013.1
20260905180632 102 20 0.9 0.9 0.00 0.00 0.00 35 1012.9
20260905180127 101 23 0.0 0.9 0.00 0.00 0.00 37 1013.3
20260905175626 101 31 0.9 1.7 0.00 0.00 0.00 38 1013.3
20260905175122 101 25 0.9 1.7 0.00 0.00 0.00 37 1013.4
20260905174617 101 149 1.7 2.6 0.00 0.00 0.00 37 1013.5
20260905174112 101 354 0.9 0.9 0.00 0.00 0.00 37 1013.4
20260905173609 101 24 0.9 1.7 0.00 0.00 0.00 36 1013.5
20260905173104 100 5 1.7 3.5 0.00 0.00 0.00 38 1013.5
20260905172603 99 346 0.9 1.7 0.00 0.00 0.00 40 1013.7
20260905172058 99 12 0.9 1.7 0.00 0.00 0.00 39 1013.7
20260905171554 99 342 0.0 0.9 0.00 0.00 0.00 40 1013.8
20260905171050 99 4 1.7 1.7 0.00 0.00 0.00 40 1013.9
20260905170547 99 355 0.0 2.6 0.00 0.00 0.00 41 1013.7
20260905170041 99 358 1.7 1.7 0.00 0.00 0.00 40 1013.9
20260905165536 99 357 2.6 2.6 0.00 0.00 0.00 39 1014.1
20260905165032 98 16 0.9 0.9 0.00 0.00 0.00 42 1014.0
20260905164532 96 352 0.9 1.7 0.00 0.00 0.00 43 1014.2
20260905164027 97 20 1.7 1.7 0.00 0.00 0.00 42 1014.1
20260905163522 97 5 1.7 1.7 0.00 0.00 0.00 42 1014.3
20260905163018 97 22 0.0 0.9 0.00 0.00 0.00 44 1014.4
20260905162514 98 25 0.0 1.7 0.00 0.00 0.00 43 1014.3
20260905162009 97 19 0.0 0.9 0.00 0.00 0.00 44 1014.3
20260905161509 96 20 1.7 1.7 0.00 0.00 0.00 45 1014.5
20260905161007 97 355 2.6 2.6 0.00 0.00 0.00 44 1014.4
20260905160506 96 35 0.0 1.7 0.00 0.00 0.00 45 1014.5
20260905160006 96 23 0.9 0.9 0.00 0.00 0.00 47 1014.5
20260905155506 96 353 1.7 2.6 0.00 0.00 0.00 45 1014.6
20260905155004 96 0 0.0 0.9 0.00 0.00 0.00 48 1014.4
20260905154500 95 0 0.9 1.7 0.00 0.00 0.00 48 1014.3
20260905153955 95 2 0.9 0.9 0.00 0.00 0.00 48 1014.4
20260905153451 95 1 1.7 2.6 0.00 0.00 0.00 48 1014.5
20260905152951 94 14 0.9 0.9 0.00 0.00 0.00 49 1014.4
20260905152450 93 354 1.7 1.7 0.00 0.00 0.00 50 1014.3
20260905151946 94 7 1.7 1.7 0.00 0.00 0.00 49 1014.6
20260905151441 95 11 1.7 1.7 0.00 0.00 0.00 47 1014.5
20260905150936 95 11 0.9 0.9 0.00 0.00 0.00 48 1014.5
20260905150436 95 11 0.0 0.9 0.00 0.00 0.00 49 1014.5
20260905145932 94 12 0.0 0.9 0.00 0.00 0.00 51 1014.6
20260905145427 93 12 0.0 0.9 0.00 0.00 0.00 53 1014.4
20260905144927 93 13 0.9 0.9 0.00 0.00 0.00 54 1014.5
20260905144423 92 13 0.0 0.9 0.00 0.00 0.00 55 1014.4
20260905143921 90 13 0.9 0.9 0.00 0.00 0.00 56 1014.3
20260905143421 90 13 0.9 0.9 0.00 0.00 0.00 57 1014.6
20260905142921 90 18 0.9 1.7 0.00 0.00 0.00 58 1014.7
20260905142419 91 20 1.7 1.7 0.00 0.00 0.00 57 1014.9
20260905141916 90 19 0.0 0.9 0.00 0.00 0.00 59 1014.5
20260905141411 89 19 0.0 0.9 0.00 0.00 0.00 62 1014.8
20260905140906 89 23 0.0 0.0 0.00 0.00 0.00 63 1014.7
20260905140401 90 27 0.9 1.7 0.00 0.00 0.00 60 1014.6
20260905135900 89 32 0.0 0.0 0.00 0.00 0.00 62 1014.7
20260905135356 89 20 0.9 0.9 0.00 0.00 0.00 61 1014.9
20260905134851 90 33 0.0 0.0 0.00 0.00 0.00 60 1014.9
20260905134350 89 33 0.0 0.0 0.00 0.00 0.00 62 1014.6
20260905133844 88 33 0.0 0.0 0.00 0.00 0.00 64 1014.7
20260905132839 87 35 0.0 0.0 0.00 0.00 0.00 66 1014.5
20260905132335 85 35 0.0 0.0 0.00 0.00 0.00 70 1014.6
20260905131834 83 35 0.0 0.0 0.00 0.00 0.00 74 1014.7
20260905131330 82 35 0.0 0.0 0.00 0.00 0.00 77 1014.7
20260905130825 79 35 0.0 0.0 0.00 0.00 0.00 83 1015.0
20260905130324 78 34 0.0 0.0 0.00 0.00 0.00 86 1014.9
20260905125819 77 34 0.0 0.0 0.00 0.00 0.00 87 1014.8
20260905125314 77 34 0.0 0.9 0.00 0.00 0.00 89 1014.9
20260905124810 76 34 0.0 0.0 0.00 0.00 0.00 90 1014.9
20260905124307 75 34 0.0 0.0 0.00 0.00 0.00 91 1014.9
20260905123801 75 34 0.0 0.0 0.00 0.00 0.00 92 1014.9
20260905123259 74 34 0.0 0.0 0.00 0.00 0.00 92 1015.0
20260905122758 74 34 0.0 0.9 0.00 0.00 0.00 92 1014.8
20260905122257 74 34 0.0 0.0 0.00 0.00 0.00 92 1014.6
20260905121753 74 34 0.0 0.0 0.00 0.00 0.00 93 1014.9
20260905121249 73 34 0.0 0.0 0.00 0.00 0.00 93 1014.7
20260905120747 73 34 0.0 0.0 0.00 0.00 0.00 93 1014.9
20260905120242 73 34 0.0 0.0 0.00 0.00 0.00 93 1014.6
20260905115737 73 34 0.0 0.0 0.00 0.00 0.00 93 1014.7
20260905115237 73 34 0.0 0.0 0.00 0.00 0.00 93 1014.7
20260905114731 73 34 0.0 0.0 0.00 0.00 0.00 94 1014.5
20260905114230 73 34 0.0 0.0 0.00 0.00 0.00 94 1014.4
20260905113729 73 34 0.0 0.0 0.00 0.00 0.00 94 1014.5
20260905113225 73 34 0.0 0.0 0.00 0.00 0.00 94 1014.4
20260905112725 73 34 0.0 0.0 0.00 0.00 0.00 94 1014.3
20260905112220 73 34 0.0 0.0 0.00 0.00 0.00 94 1014.3
20260905111721 73 34 0.0 0.0 0.00 0.00 0.00 93 1014.5
20260905111215 73 34 0.0 0.0 0.00 0.00 0.00 93 1014.3
20260905110714 73 34 0.0 0.0 0.00 0.00 0.00 93 1014.2
20260905110209 73 34 0.0 0.0 0.00 0.00 0.00 93 1014.2
20260905105705 73 34 0.0 0.0 0.00 0.00 0.00 93 1014.3
20260905105203 73 34 0.0 0.0 0.00 0.00 0.00 93 1014.2
20260905104658 73 34 0.0 0.0 0.00 0.00 0.00 93 1014.3
20260905104154 73 34 0.0 0.0 0.00 0.00 0.00 93 1014.4
20260905103649 73 34 0.0 0.0 0.00 0.00 0.00 93 1014.2
20260905103145 73 34 0.0 0.0 0.00 0.00 0.00 92 1014.4
20260905102641 73 34 0.0 0.0 0.00 0.00 0.00 92 1014.3
20260905102137 73 34 0.0 0.0 0.00 0.00 0.00 92 1014.2
20260905101635 73 34 0.0 0.0 0.00 0.00 0.00 92 1014.2